Weather History for KTOP - August, 2013

Change the Weather History Date:

Wednesday, August 21, 2013

  Actual Average Record
Temperature  
Mean Temperature 80 °F 77 °F  
Max Temperature 92 °F 88 °F 107 °F (2003)
Min Temperature 68 °F 66 °F 45 °F (1956)
Degree Days  
Heating Degree Days 0 0  
Month to date heating degree days 0 0  
Since 1 June heating degree days 5 8  
Since 1 July heating degree days 0 0  
Cooling Degree Days 15 12  
Month to date cooling degree days 205 278  
Year to date cooling degree days 1111 1120  
Since 1 June cooling degree days 966 994  
Growing Degree Days 30 (Base 50)    
Moisture  
Dew Point 66 °F    
Average Humidity 62    
Maximum Humidity 79    
Minimum Humidity 44    
Precipitation  
Precipitation 0.00 in 0.13 in 1.74 in (1911)
Month to date precipitation 5.19 2.86  
Year to date precipitation 24.45 25.19  
Snow  
Snow 0.00 in 0.00 in 0.00 in ()
Month to date snowfall 0.0 0.0  
Year to date snowfall 24.2 11.3  
Since 1 July snowfall 0.0 0.0  
Snow Depth 0.00 in    
Sea Level Pressure  
Sea Level Pressure 30.01 in    
Wind  
Wind Speed 6 mph (South)    
Max Wind Speed 13 mph    
Max Gust Speed 18 mph    
Visibility 10 miles    
Events      
T = Trace of Precipitation, MM = Missing Value Source: NWS Daily Summary

Daily Weather History Graph

Daily Weather History Graph

Search for Another Location

Airport or City:

Trip Planner

Search our weather history database for the weather conditions in past years. The results will help you decide how hot, cold, wet, or windy it might be!

Date:

Astronomy

Aug. 21, 2013 Rise Set
Actual Time 6:41 AM CDT 8:08 PM CDT
Civil Twilight 6:13 AM CDT 8:36 PM CDT
Nautical Twilight 5:39 AM CDT 9:10 PM CDT
Astronomical Twilight 5:04 AM CDT 9:45 PM CDT
Moon 8:19 PM CDT (8/21) 7:21 AM CDT (8/21)
Length of Visible Light 14h 23m
Length of Day
13h 27m
Waxing Gibbous, 99% of the Moon is Illuminated
Aug 21
Waxing Gibbous
Aug 28
Last Quarter
Sep 5
New
Sep 12
First Quarter
Sep 19
Full

Hourly Weather History & Observations

Time (CDT) Temp. Heat Index Dew Point Humidity Pressure Visibility Wind Dir Wind Speed Gust Speed Precip Events Conditions
12:53 AM 75.9 °F - 66.0 °F 71% 30.01 in 10.0 mi South 8.1 mph - N/A   Clear
1:53 AM 75.0 °F - 64.9 °F 71% 30.01 in 10.0 mi South 8.1 mph - N/A   Clear
2:53 AM 73.9 °F - 64.0 °F 71% 30.00 in 10.0 mi South 9.2 mph - N/A   Clear
3:53 AM 73.0 °F - 64.0 °F 73% 29.99 in 10.0 mi South 3.5 mph - N/A   Clear
4:53 AM 72.0 °F - 63.0 °F 73% 29.99 in 10.0 mi Calm Calm - N/A   Clear
5:53 AM 71.1 °F - 62.1 °F 73% 30.00 in 10.0 mi Calm Calm - N/A   Clear
6:53 AM 69.1 °F - 62.1 °F 78% 30.03 in 10.0 mi ESE 4.6 mph - N/A   Clear
7:53 AM 72.0 °F - 64.0 °F 76% 30.04 in 9.0 mi ESE 4.6 mph - N/A   Clear
8:53 AM 75.9 °F - 64.9 °F 69% 30.04 in 10.0 mi SSE 4.6 mph - N/A   Clear
9:53 AM 81.0 °F 83.0 °F 66.0 °F 60% 30.04 in 10.0 mi SSW 6.9 mph - N/A   Clear
10:53 AM 82.9 °F 85.0 °F 66.0 °F 56% 30.04 in 10.0 mi South 8.1 mph - N/A   Clear
11:53 AM 86.0 °F 88.8 °F 66.9 °F 53% 30.04 in 10.0 mi SSE 6.9 mph - N/A   Clear
12:53 PM 88.0 °F 90.7 °F 66.9 °F 49% 30.03 in 10.0 mi South 9.2 mph - N/A   Clear
1:53 PM 89.1 °F 91.3 °F 66.0 °F 46% 30.01 in 10.0 mi SSE 9.2 mph - N/A   Clear
2:53 PM 91.0 °F 94.3 °F 66.9 °F 45% 30.01 in 10.0 mi South 9.2 mph - N/A   Clear
3:53 PM 91.0 °F 94.3 °F 66.9 °F 45% 29.99 in 10.0 mi South 8.1 mph - N/A   Clear
4:53 PM 91.0 °F 94.3 °F 66.9 °F 45% 29.98 in 10.0 mi South 11.5 mph - N/A   Clear
5:53 PM 90.0 °F 93.6 °F 68.0 °F 48% 29.97 in 10.0 mi South 11.5 mph - N/A   Clear
6:53 PM 89.1 °F 92.9 °F 68.0 °F 50% 29.97 in 10.0 mi South 6.9 mph - N/A   Clear
7:53 PM 84.0 °F 88.4 °F 70.0 °F 63% 29.97 in 10.0 mi South 5.8 mph - N/A   Clear
8:53 PM 82.0 °F 85.5 °F 69.1 °F 65% 29.98 in 10.0 mi South 5.8 mph - N/A   Clear
9:53 PM 80.1 °F 82.9 °F 69.1 °F 69% 29.98 in 10.0 mi South 5.8 mph - N/A   Clear
10:53 PM 78.1 °F - 69.1 °F 74% 29.99 in 10.0 mi SSW 4.6 mph - N/A   Clear
11:53 PM 75.9 °F - 68.0 °F 76% 30.00 in 10.0 mi South 3.5 mph - N/A   Clear